Stations météo

réclame
Mon MeteoGroup
F3, Pays-Bas (6239): Température de l'air & dewpoint: 10.07.2019 00:00:00 - 16.07.2019 00:00:00 (CEST)F3, Pays-Bas (6239): Vitesse du vent & gusts: 10.07.2019 00:00:00 - 16.07.2019 00:00:00 (CEST)F3, Pays-Bas (6239): Direction du vent: 10.07.2019 00:00:00 - 16.07.2019 00:00:00 (CEST)F3, Pays-Bas (6239): reduced air pressure: 10.07.2019 00:00:00 - 16.07.2019 00:00:00 (CEST)F3, Pays-Bas (6239): visibility: 10.07.2019 00:00:00 - 16.07.2019 00:00:00 (CEST)
Date & Time tt [°C] td [°C] ff [km/h] ff [knt] fx [km/h] fx [knt] dd ppp [hPa] vv [km]
16.07.2019 00:00:00 12,8 11,7 29 16 32 18 NW 1018,9 10
15.07.2019 23:00:00 13,2 11,4 31 17 36 19 NW 1018,9 10
15.07.2019 22:00:00 13,3 10,5 34 18 36 19 NNW 1019,1 10
15.07.2019 21:00:00 13,3 10,2 35 19 43 23 NW 1019,1 10
15.07.2019 20:00:00 13,3 10,0 36 19 43 23 NNW 1018,9 32
15.07.2019 19:00:00 13,4 9,8 41 22 43 23 NW 1019,2 10
15.07.2019 18:00:00 13,5 10,4 37 20 36 19 NW 1019,2 10
15.07.2019 17:00:00 13,6 10,0 37 20 40 21 NW 1019,5 10
15.07.2019 16:00:00 13,5 10,5 35 19 40 21 NW 1019,4 10
15.07.2019 15:00:00 13,3 10,9 41 22 40 21 NW 1019,6 10
15.07.2019 14:00:00 12,9 11,1 35 19 43 23 NNW 1019,6 10
15.07.2019 13:00:00 13,2 10,7 39 21 47 25 NNW 1019,7 10
15.07.2019 12:00:00 13,2 10,1 41 22 43 23 NNW 1019,5 10
15.07.2019 11:00:00 13,3 9,5 42 23 43 23 NNW 1019,4 10
15.07.2019 10:00:00 13,2 8,8 39 21 43 23 NW 1019,4 10
15.07.2019 09:00:00 13,1 9,1 41 22 43 23 NW 1019,4 10
15.07.2019 08:00:00 12,9 9,3 34 18 43 23 NNW 1019,4 10
15.07.2019 07:00:00 12,7 8,5 39 21 43 23 NNW 1019,3 10
15.07.2019 06:00:00 13,0 8,6 41 22 43 23 NNW 1019,3 10
15.07.2019 05:00:00 12,9 8,7 37 20 40 21 NW 1019,4 10
15.07.2019 04:00:00 13,1 9,0 39 21 40 21 NW 1019,9 10
15.07.2019 03:00:00 12,8 8,3 35 19 40 21 NW 1020,3 10
15.07.2019 02:00:00 13,1 9,0 29 16 40 21 NNW 1020,5 10
15.07.2019 01:00:00 13,2 9,3 29 16 36 19 NNW 1020,7 10
15.07.2019 00:00:00 13,0 8,5 29 16 40 21 NNW 1020,8 10
14.07.2019 23:00:00 12,9 9,3 31 17 40 21 NNW 1020,9 10
14.07.2019 22:00:00 13,0 10,3 34 18 43 23 NNW 1020,9 10
14.07.2019 21:00:00 13,1 8,7 37 20 40 21 NNW 1020,7 10
14.07.2019 20:00:00 13,2 8,7 37 20 40 21 NNW 1020,9 10
14.07.2019 19:00:00 13,4 9,3 35 19 40 21 NNW 1020,9 10
14.07.2019 18:00:00 13,5 9,6 35 19 40 21 NNW 1021,0 10
14.07.2019 17:00:00 13,4 9,4 34 18 36 19 NNW 1021,2 10
14.07.2019 16:00:00 13,2 9,5 34 18 36 19 NNW 1021,0 10
14.07.2019 15:00:00 13,2 10,1 29 16 36 19 NNW 1021,0 10
14.07.2019 14:00:00 13,2 10,5 28 15 32 18 NNW 1021,0 10
14.07.2019 13:00:00 13,1 10,0 31 17 36 19 NNW 1020,6 10
14.07.2019 12:00:00 13,0 10,3 31 17 40 21 N 1020,6 10
14.07.2019 11:00:00 13,0 9,8 35 19 43 23 NNW 1020,4 10
14.07.2019 10:00:00 13,0 9,3 35 19 43 23 NNW 1020,1 10
14.07.2019 09:00:00 13,1 9,4 34 18 43 23 NNW 1019,9 10
14.07.2019 08:00:00 12,9 9,3 37 20 43 23 NNW 1019,6 10
14.07.2019 07:00:00 12,9 10,1 42 23 47 25 NNW 1019,5 10
14.07.2019 06:00:00 13,5 9,5 37 20 43 23 NNW 1019,5 10
14.07.2019 05:00:00 13,7 10,5 35 19 40 21 NNW 1019,4 10
14.07.2019 04:00:00 13,7 11,1 37 20 43 23 NNW 1019,4 10
14.07.2019 03:00:00 13,9 11,0 39 21 43 23 NNW 1019,7 10
14.07.2019 02:00:00 13,9 10,8 39 21 50 27 NNW 1019,8 10
14.07.2019 01:00:00 13,9 10,1 46 25 50 27 NNW 1020,0 10
14.07.2019 00:00:00 13,7 10,2 42 23 50 27 NNW 1020,1 10
13.07.2019 23:00:00 13,5 9,9 41 22 50 27 NNW 1020,2 10
13.07.2019 22:00:00 13,5 9,5 39 21 50 27 NNW 1019,8 10
13.07.2019 21:00:00 13,8 10,1 44 24 47 25 NNW 1019,6 10
13.07.2019 20:00:00 13,7 10,2 37 20 43 23 NNW 1019,5 10
13.07.2019 19:00:00 13,7 9,8 42 23 43 23 NW 1019,2 10
13.07.2019 18:00:00 13,6 9,8 39 21 40 21 NW 1019,1 10
13.07.2019 17:00:00 13,6 9,7 35 19 43 23 NNW 1019,3 10
13.07.2019 16:00:00 13,7 10,2 39 21 40 21 NW 1019,2 10
13.07.2019 15:00:00 13,7 10,0 39 21 43 23 NNW 1019,1 10
13.07.2019 14:00:00 13,0 11,6 31 17 40 21 NW 1019,0 8
13.07.2019 13:00:00 13,4 11,3 34 18 40 21 NNW 1018,7 10
13.07.2019 12:00:00 13,7 10,6 37 20 40 21 NW 1018,3 10
13.07.2019 11:00:00 12,9 12,1 31 17 36 19 NNW 1018,1 2,5
13.07.2019 10:00:00 13,0 12,1 34 18 36 19 NW 1017,8 5
13.07.2019 09:00:00 13,5 10,2 26 14 36 19 NNW 1017,5 10
13.07.2019 08:00:00 13,1 9,2 37 20 40 21 NNW 1017,2 10
13.07.2019 07:00:00 13,8 11,6 31 17 36 19 NW 1016,8 10
13.07.2019 06:00:00 14,1 11,8 28 15 32 18 NNW 1016,4 10
13.07.2019 05:00:00 14,3 12,5 21 11 25 14 NNW 1016,1 10
13.07.2019 04:00:00 14,5 12,8 24 13 29 16 NNW 1015,9 10
13.07.2019 03:00:00 14,6 13,7 24 13 25 14 NNW 1015,7 10
13.07.2019 02:00:00 15,3 13,7 15 8 18 10 NNW 1015,5 10
13.07.2019 01:00:00 15,3 14,2 13 7 18 10 N 1015,4 10
13.07.2019 00:00:00 15,5 13,9 13 7 22 12 N 1015,0 10
12.07.2019 23:00:00 15,7 13,5 16 9 18 10 NNW 1014,6 10
12.07.2019 22:00:00 15,5 14,6 16 9 18 10 NNW 1014,2 10
12.07.2019 21:00:00 15,6 14,5 16 9 18 10 NNW 1013,7 10
12.07.2019 20:00:00 15,6 14,3 16 9 18 10 NNW 1013,1 10
12.07.2019 19:00:00 15,4 14,7 13 7 18 10 NNW 1012,8 10
12.07.2019 18:00:00 15,1 14,4 15 8 18 10 NNW 1012,4 10
12.07.2019 17:00:00 15,7 14,5 13 7 18 10 N 1012,0 10
12.07.2019 16:00:00 15,4 14,5 11 6 14 8 NNW 1011,7 10
12.07.2019 15:00:00 15,2 14,2 9 5 11 6 NW 1011,5 10
12.07.2019 14:00:00 15,1 14,5 9 5 11 6 W 1011,4 9
12.07.2019 13:00:00 15,3 14,1 8 4 7 4 W 1011,3 10
12.07.2019 12:00:00 15,3 14,7 8 4 7 4 WSW 1010,8 10
12.07.2019 11:00:00 15,3 15,2 2 1 4 2 SE 1010,5 10
12.07.2019 10:00:00 15,4 15,2 4 2 32 18 ESE 1010,3 7
12.07.2019 09:00:00 15,2 14,7 8 4 7 4 ENE 1010,0 10
12.07.2019 08:00:00 15,0 14,3 2 1 4 2 ENE 1009,7 10
12.07.2019 07:00:00 15,1 14,7 5 3 7 4 NW 1009,8 8
12.07.2019 06:00:00 15,1 14,9 9 5 11 6 WNW 1009,6 5
12.07.2019 05:00:00 15,3 15,1 11 6 14 8 W 1009,7 2,8
12.07.2019 04:00:00 15,2 15,0 13 7 14 8 W 1009,8 4,0
12.07.2019 03:00:00 15,2 14,9 18 10 18 10 W 1010,0 7
12.07.2019 02:00:00 15,1 14,8 15 8 18 10 W 1010,1 6
12.07.2019 01:00:00 15,2 15,0 16 9 18 10 WSW 1010,3 8
12.07.2019 00:00:00 15,3 14,9 18 10 18 10 WSW 1010,6 7
11.07.2019 23:00:00 15,4 14,9 18 10 18 10 WSW 1010,5 10
11.07.2019 22:00:00 15,5 14,8 18 10 18 10 WSW 1010,4 10
11.07.2019 21:00:00 15,5 14,6 18 10 18 10 WSW 1010,3 10
11.07.2019 20:00:00 15,5 14,6 16 9 18 10 W 1010,3 10
11.07.2019 19:00:00 15,4 14,3 16 9 18 10 W 1010,4 10
11.07.2019 18:00:00 15,6 14,8 16 9 32 18 W 1010,5 9
11.07.2019 17:00:00 15,6 14,6 22 12 22 12 W 1010,5 10
11.07.2019 16:00:00 16,0 15,0 15 8 14 8 WSW 1010,5 10
11.07.2019 15:00:00 16,3 15,5 5 3 11 6 WSW 1010,5 10
11.07.2019 14:00:00 16,4 15,2 9 5 11 6 SW 1010,3 8
11.07.2019 13:00:00 15,9 15,5 13 7 14 8 SW 1010,5 7
11.07.2019 12:00:00 16,2 15,8 13 7 14 8 S 1010,5 7
11.07.2019 11:00:00 15,8 15,5 15 8 14 8 S 1010,6 3,3
11.07.2019 10:00:00 15,5 15,3 11 6 14 8 SSE 1010,8 10
11.07.2019 09:00:00 15,6 15,3 18 10 18 10 SSW 1010,6 3,9
11.07.2019 08:00:00 15,5 15,3 15 8 14 8 SSW 1010,6 5
11.07.2019 07:00:00 15,4 15,1 11 6 18 10 SSW 1011,0 2,1
11.07.2019 06:00:00 15,3 15,1 18 10 18 10 SSW 1011,3 1,9
11.07.2019 05:00:00 15,3 15,1 18 10 18 10 SSW 1011,7 1,9
11.07.2019 04:00:00 15,4 15,0 21 11 18 10 SSW 1012,1 2,1
11.07.2019 03:00:00 15,3 14,5 21 11 22 12 SW 1012,8 7
11.07.2019 02:00:00 14,8 14,2 22 12 22 12 SW 1013,3 4,6
11.07.2019 01:00:00 15,1 14,4 18 10 22 12 SW 1013,5 7
11.07.2019 00:00:00 15,0 14,6 16 9 18 10 WSW 1014,1 5
10.07.2019 23:00:00 15,2 14,9 18 10 22 12 WSW 1014,3 5
10.07.2019 22:00:00 15,0 14,7 16 9 18 10 SW 1014,5 5
10.07.2019 21:00:00 14,7 14,5 21 11 25 14 WSW 1014,7 2,9
10.07.2019 20:00:00 14,8 14,6 26 14 25 14 W 1015,2 3,7
10.07.2019 19:00:00 14,9 14,8 21 11 22 12 WSW 1015,5 2,5
10.07.2019 18:00:00 15,1 14,9 21 11 36 19 - 1015,6 2,4
10.07.2019 17:00:00 15,4 14,9 18 10 18 10 W 1015,7 3,8
10.07.2019 16:00:00 15,4 14,7 22 12 22 12 W 1015,9 4,1
10.07.2019 15:00:00 15,5 14,9 22 12 25 14 W 1016,2 3,5
10.07.2019 14:00:00 19,1 15,1 28 15 29 16 WSW 1016,3 2,6
10.07.2019 13:00:00 14,9 14,3 34 18 36 19 SW 1016,4 10
10.07.2019 12:00:00 14,5 13,8 37 20 36 19 SSW 1016,8 3,7
10.07.2019 11:00:00 14,0 13,3 39 21 40 21 S 1017,2 6
10.07.2019 10:00:00 13,2 12,3 39 21 43 23 S 1017,6 6
10.07.2019 09:00:00 12,7 11,8 39 21 43 23 S 1017,9 4,4
10.07.2019 08:00:00 12,5 11,6 35 19 36 19 S 1018,3 6
10.07.2019 07:00:00 12,2 10,9 31 17 36 19 SSW 1018,7 4,8
10.07.2019 06:00:00 13,3 9,4 24 13 29 16 SSW 1019,1 8
10.07.2019 05:00:00 14,0 9,5 29 16 29 16 SW 1019,1 10
10.07.2019 04:00:00 14,5 9,5 18 10 18 10 SW 1019,5 10
10.07.2019 03:00:00 14,5 11,8 11 6 18 10 WSW 1019,8 10
10.07.2019 02:00:00 14,9 9,9 16 9 14 8 WSW 1020,2 10
10.07.2019 01:00:00 14,7 11,0 16 9 14 8 WSW 1020,6 10
10.07.2019 00:00:00 14,4 10,4 13 7 14 8 WSW 1020,7 10

tt = Température de l'air
td = dewpoint
ff = Vitesse du vent
fx = gusts
dd = Direction du vent
ppp = reduced air pressure
vv = visibility

stations d'obs. à proximité